TimeCDT,TemperatureF,Dew PointF,Humidity,Sea Level PressureIn,VisibilityMPH,Wind Direction,Wind SpeedMPH,Gust SpeedMPH,PrecipitationIn,Events,Conditions,WindDirDegrees,DateUTC
12:15 AM,45.9,37.4,72,30.11,10.0,NNE,5.8,-,N/A,,Clear,20,2013-05-05 05:15:00
12:35 AM,46.4,37.4,71,30.12,10.0,North,6.9,-,N/A,,Clear,360,2013-05-05 05:35:00
12:55 AM,45.9,36.5,70,30.12,10.0,North,6.9,-,N/A,,Clear,350,2013-05-05 05:55:00
1:15 AM,43.7,36.5,76,30.12,10.0,NNW,6.9,-,N/A,,Clear,340,2013-05-05 06:15:00
1:35 AM,45.5,37.4,73,30.13,10.0,NNW,4.6,-,N/A,,Clear,340,2013-05-05 06:35:00
1:55 AM,41.7,35.1,77,30.12,10.0,North,8.1,-,N/A,,Clear,360,2013-05-05 06:55:00
2:15 AM,41.2,35.8,81,30.12,10.0,North,8.1,-,N/A,,Clear,350,2013-05-05 07:15:00
2:35 AM,41.0,35.6,81,30.12,10.0,North,8.1,-,N/A,,Clear,350,2013-05-05 07:35:00
2:55 AM,40.5,35.4,82,30.12,10.0,NNW,8.1,-,N/A,,Clear,340,2013-05-05 07:55:00
3:15 AM,40.8,35.6,82,30.12,10.0,NNW,6.9,-,N/A,,Clear,330,2013-05-05 08:15:00
3:35 AM,40.3,34.9,81,30.12,10.0,NNW,5.8,-,N/A,,Clear,330,2013-05-05 08:35:00
3:55 AM,39.9,34.7,82,30.12,10.0,NNW,8.1,-,N/A,,Clear,340,2013-05-05 08:55:00
4:15 AM,40.1,35.4,83,30.14,10.0,North,8.1,-,N/A,,Clear,350,2013-05-05 09:15:00
4:35 AM,40.5,35.4,82,30.14,10.0,North,3.5,-,N/A,,Clear,10,2013-05-05 09:35:00
4:55 AM,40.5,35.2,82,30.15,10.0,North,4.6,-,N/A,,Clear,360,2013-05-05 09:55:00
5:15 AM,40.3,34.9,81,30.15,10.0,North,4.6,-,N/A,,Clear,350,2013-05-05 10:15:00
5:55 AM,38.7,34.3,84,30.16,10.0,NNW,6.9,-,N/A,,Clear,340,2013-05-05 10:55:00
6:15 AM,39.2,34.7,84,30.17,10.0,NW,5.8,-,N/A,,Clear,320,2013-05-05 11:15:00
6:35 AM,37.8,33.3,84,30.17,10.0,NW,3.5,-,N/A,,Clear,310,2013-05-05 11:35:00
6:55 AM,38.3,34.0,84,30.18,10.0,NW,4.6,-,N/A,,Scattered Clouds,320,2013-05-05 11:55:00
7:15 AM,39.7,35.8,86,30.19,10.0,NNW,5.8,-,N/A,,Mostly Cloudy,330,2013-05-05 12:15:00
7:35 AM,42.3,37.0,82,30.19,10.0,NNW,6.9,-,N/A,,Overcast,340,2013-05-05 12:35:00
7:55 AM,43.7,36.7,76,30.21,10.0,NW,8.1,-,N/A,,Overcast,320,2013-05-05 12:55:00
8:15 AM,45.1,36.9,73,30.22,10.0,NW,8.1,-,N/A,,Overcast,320,2013-05-05 13:15:00
8:35 AM,47.3,38.1,70,30.22,10.0,NNW,9.2,-,N/A,,Mostly Cloudy,330,2013-05-05 13:35:00
8:55 AM,49.1,38.7,67,30.22,10.0,NNW,8.1,-,N/A,,Mostly Cloudy,340,2013-05-05 13:55:00
9:15 AM,50.0,39.4,67,30.22,10.0,North,10.4,-,N/A,,Overcast,10,2013-05-05 14:15:00
9:35 AM,50.4,39.6,66,30.22,10.0,North,11.5,-,N/A,,Overcast,350,2013-05-05 14:35:00
9:55 AM,50.9,40.1,67,30.24,10.0,North,10.4,-,N/A,,Overcast,360,2013-05-05 14:55:00
10:15 AM,52.2,40.5,64,30.24,10.0,North,10.4,-,N/A,,Mostly Cloudy,360,2013-05-05 15:15:00
10:35 AM,52.3,40.6,64,30.24,10.0,North,9.2,-,N/A,,Mostly Cloudy,350,2013-05-05 15:35:00
10:55 AM,52.7,40.8,64,30.24,10.0,NNW,9.2,-,N/A,,Mostly Cloudy,340,2013-05-05 15:55:00
11:15 AM,53.4,40.8,62,30.24,10.0,NNW,9.2,-,N/A,,Mostly Cloudy,340,2013-05-05 16:15:00
11:35 AM,54.1,41.0,61,30.24,10.0,North,11.5,16.1,N/A,,Mostly Cloudy,360,2013-05-05 16:35:00
11:55 AM,55.6,41.5,59,30.24,10.0,NNW,11.5,16.1,N/A,,Mostly Cloudy,340,2013-05-05 16:55:00
12:15 PM,56.7,41.7,57,30.24,10.0,NNW,11.5,16.1,N/A,,Mostly Cloudy,330,2013-05-05 17:15:00
12:35 PM,58.8,42.1,54,30.23,10.0,North,8.1,-,N/A,,Mostly Cloudy,10,2013-05-05 17:35:00
12:55 PM,60.4,42.3,51,30.22,10.0,North,5.8,-,N/A,,Scattered Clouds,360,2013-05-05 17:55:00
1:15 PM,60.4,42.1,51,30.21,10.0,Calm,Calm,-,N/A,,Scattered Clouds,0,2013-05-05 18:15:00
1:35 PM,62.8,42.3,47,30.20,10.0,NNE,4.6,-,N/A,,Clear,30,2013-05-05 18:35:00
1:55 PM,63.3,41.9,46,30.18,10.0,NE,6.9,-,N/A,,Clear,50,2013-05-05 18:55:00
2:15 PM,65.1,42.3,43,30.18,10.0,North,10.4,-,N/A,,Clear,10,2013-05-05 19:15:00
2:35 PM,66.9,42.1,40,30.16,10.0,North,6.9,-,N/A,,Clear,350,2013-05-05 19:35:00
3:15 PM,68.7,42.6,39,30.14,10.0,NNE,8.1,-,N/A,,Clear,30,2013-05-05 20:15:00
3:35 PM,69.1,42.1,38,30.13,10.0,ENE,4.6,-,N/A,,Clear,60,2013-05-05 20:35:00
3:55 PM,70.5,42.1,36,30.12,10.0,NNE,11.5,-,N/A,,Clear,30,2013-05-05 20:55:00
4:15 PM,70.5,41.7,35,30.12,10.0,NW,3.5,-,N/A,,Clear,320,2013-05-05 21:15:00
4:35 PM,70.5,41.7,35,30.11,10.0,NE,10.4,-,N/A,,Clear,40,2013-05-05 21:35:00
4:55 PM,70.5,41.5,35,30.10,10.0,ENE,6.9,-,N/A,,Clear,70,2013-05-05 21:55:00
5:15 PM,70.3,41.5,35,30.10,10.0,NNE,5.8,-,N/A,,Clear,20,2013-05-05 22:15:00
5:35 PM,71.8,41.7,34,30.10,10.0,Calm,Calm,-,N/A,,Clear,0,2013-05-05 22:35:00
5:55 PM,71.8,41.7,34,30.10,10.0,NNE,3.5,-,N/A,,Clear,30,2013-05-05 22:55:00
6:15 PM,71.1,42.1,35,30.10,10.0,Calm,Calm,-,N/A,,Clear,0,2013-05-05 23:15:00
6:35 PM,70.7,42.1,35,30.09,10.0,ENE,5.8,-,N/A,,Clear,70,2013-05-05 23:35:00
6:55 PM,70.0,42.4,37,30.09,10.0,NNE,4.6,-,N/A,,Clear,20,2013-05-05 23:55:00
7:15 PM,69.3,42.6,38,30.09,10.0,NE,3.5,-,N/A,,Clear,50,2013-05-06 00:15:00
7:35 PM,68.2,44.4,42,30.09,10.0,East,8.1,-,N/A,,Clear,80,2013-05-06 00:35:00
7:55 PM,66.9,44.8,45,30.09,10.0,East,6.9,-,N/A,,Clear,90,2013-05-06 00:55:00
8:15 PM,65.5,45.5,48,30.09,10.0,East,8.1,-,N/A,,Clear,90,2013-05-06 01:15:00
8:35 PM,63.5,45.5,52,30.09,10.0,East,6.9,-,N/A,,Clear,90,2013-05-06 01:35:00
8:55 PM,61.2,45.5,56,30.09,10.0,East,6.9,-,N/A,,Clear,80,2013-05-06 01:55:00
9:15 PM,60.6,45.5,57,30.09,10.0,East,6.9,-,N/A,,Clear,80,2013-05-06 02:15:00
9:35 PM,57.9,45.0,62,30.10,10.0,East,5.8,-,N/A,,Clear,100,2013-05-06 02:35:00
9:55 PM,57.6,45.0,63,30.10,10.0,East,6.9,-,N/A,,Clear,100,2013-05-06 02:55:00
10:15 PM,58.1,45.5,63,30.10,10.0,East,6.9,-,N/A,,Clear,90,2013-05-06 03:15:00
10:35 PM,56.7,45.0,65,30.11,10.0,East,5.8,-,N/A,,Clear,90,2013-05-06 03:35:00
10:55 PM,54.7,44.8,69,30.11,10.0,East,5.8,-,N/A,,Clear,90,2013-05-06 03:55:00
11:15 PM,54.7,45.3,71,30.12,10.0,East,6.9,-,N/A,,Clear,90,2013-05-06 04:15:00
11:35 PM,54.9,45.0,69,30.12,10.0,East,8.1,-,N/A,,Clear,100,2013-05-06 04:35:00
11:55 PM,54.7,45.5,71,30.12,10.0,ESE,5.8,-,N/A,,Clear,120,2013-05-06 04:55:00